Location: Wien
(48.2082°N, 16.3738°E)
Time: 00:56:40
(UTC+02:00)

STARS - Pass Details

Date: 02 May 2024
Orbit: 605 x 620 km, 98.1° (Epoch: 19 May)

Event Time Altitude Azimuth Distance (km) Brightness Sun altitude
Rises 01:25:50 0° 10° (N) 2,892 ? -25.9°
Reaches altitude 10° 01:28:03 10° 7° (N) 1,980 ? -25.8°
Enters shadow 01:31:54 57° 315° (NW) 722 ? -25.7°
